"startDT [UTC]","vpos","CH4 [ppm]","stdev(CH4) [ppm]","CO2 [ppm]","stdev(CO2) [ppm]","H2O_reported [%]","stdev(H2O_reported)","CavityPressure [torr]","CavityTemp [C]","OutletValve","CH4_dry [ppm]","CO2_dry [ppm]","DasTemp [C]","EtalonTemp [C]","WarmBoxTemp [C]","MPVPosition","T_ECpre [C]","T_EC1 [C]","T_EC2 [C]","p_inlet [hPa]","p_in [hPa]","p_out [hPa]","T_inlet [C]","RH_inlet [%]","dwpt_inlet [C]","T_vent [C]","RH_vent [%]","dwpt_vent [C]","flow_vent [l min-1]","flow_inlet [l min-1]","dwpt_sample [C]","T_room [C]"
2015-12-02 00:00:00,0.0,1.94991,0.00051,407.729,0.037,0.1275,0.0025,139.998,45.000,31705.61116,1.95233,408.357,35.092,45.069,45.000,0.00,0.09,-272.75,-272.82,-9,528,-942,22.3,3.7,-22.5,22.6,3.8,-22.1,5.73,1.84,-11.5,28.1
2015-12-02 00:01:00,0.0,1.94991,0.00048,407.741,0.031,0.1252,0.0023,139.999,45.000,31706.74251,1.95235,408.356,35.114,45.069,45.000,0.00,0.09,-272.75,-272.80,-9,528,-942,22.3,3.7,-22.7,22.7,3.7,-22.3,5.73,1.82,-11.5,28.1
2015-12-02 00:02:00,0.0,1.94979,0.00031,407.717,0.033,0.1275,0.0030,140.000,45.000,31707.65553,1.95222,408.345,35.081,45.069,45.000,0.00,0.09,-272.75,-272.80,-10,528,-942,22.3,3.7,-22.5,22.7,3.8,-22.1,5.73,2.11,-11.5,28.1
2015-12-02 00:03:00,0.0,1.94982,0.00035,407.738,0.033,0.1237,0.0032,139.998,45.000,31705.49664,1.95219,408.346,35.064,45.069,45.000,0.00,0.09,-272.76,-272.81,-10,528,-941,22.3,3.6,-22.8,22.7,3.7,-22.3,5.73,1.93,-11.5,28.1
2015-12-02 00:04:00,0.0,1.94977,0.00039,407.742,0.027,0.1237,0.0033,139.999,45.000,31706.12286,1.95216,408.350,35.037,45.069,44.999,0.00,0.09,-272.75,-272.81,-9,528,-942,22.3,3.6,-22.9,22.6,3.7,-22.4,5.73,1.77,-11.5,28.1
2015-12-02 00:05:00,0.0,1.95015,0.00041,407.769,0.032,0.1238,0.0028,139.999,44.999,31705.87072,1.95254,408.376,35.002,45.069,45.000,0.00,0.09,-272.75,-272.80,-8,528,-942,22.3,3.6,-22.9,22.6,3.7,-22.5,5.73,2.06,-11.5,28.0
2015-12-02 00:06:00,0.0,1.95043,0.00039,407.750,0.026,0.1292,0.0020,139.998,45.000,31706.48577,1.95292,408.385,34.994,45.069,45.000,0.00,0.09,-272.75,-272.82,-9,528,-942,22.3,3.8,-22.4,22.7,3.8,-22.2,5.73,2.02,-11.5,28.0
2015-12-02 00:07:00,0.0,1.95003,0.00037,407.748,0.056,0.1253,0.0030,139.999,45.000,31705.95762,1.95245,408.364,34.970,45.069,45.000,0.00,0.09,-272.75,-272.82,-10,528,-942,22.3,3.7,-22.7,22.7,3.8,-22.1,5.73,1.75,-11.6,28.1
2015-12-02 00:08:00,0.0,1.95005,0.00047,407.745,0.028,0.1251,0.0018,139.999,45.000,31710.02623,1.95246,408.360,34.979,45.069,45.000,0.00,0.09,-272.75,-272.80,-9,528,-942,22.3,3.6,-22.8,22.7,3.7,-22.3,5.73,2.01,-11.5,28.0
2015-12-02 00:09:00,0.0,1.94973,0.00032,407.766,0.026,0.1263,0.0012,139.996,45.000,31710.56102,1.95216,408.385,35.000,45.070,45.000,0.00,0.09,-272.75,-272.81,-8,528,-942,22.3,3.7,-22.6,22.7,3.7,-22.2,5.73,2.06,-11.6,28.0
2015-12-02 00:10:00,0.0,1.94955,0.00046,407.783,0.031,0.1252,0.0017,139.998,45.000,31709.57932,1.95195,408.397,35.000,45.070,45.000,0.00,0.09,-272.76,-272.82,-9,528,-942,22.3,3.7,-22.7,22.7,3.7,-22.3,5.73,1.77,-11.6,28.0
2015-12-02 00:11:00,0.0,1.94947,0.00051,407.810,0.034,0.1264,0.0017,139.998,45.000,31707.91547,1.95189,408.431,34.994,45.069,45.000,0.00,0.09,-272.75,-272.81,-10,528,-942,22.3,3.7,-22.6,22.6,3.7,-22.2,5.73,1.95,-11.6,28.0
2015-12-02 00:12:00,0.0,1.94951,0.00054,407.839,0.024,0.1269,0.0023,139.999,45.000,31707.45565,1.95198,408.463,34.986,45.070,45.000,0.00,0.09,-272.75,-272.81,-9,528,-942,22.3,3.7,-22.6,22.6,3.8,-22.2,5.73,2.10,-11.6,28.0
2015-12-02 00:13:00,0.0,1.94949,0.00044,407.839,0.037,0.1259,0.0016,139.998,45.000,31709.14463,1.95190,408.456,34.999,45.070,45.000,0.00,0.09,-272.75,-272.82,-8,528,-942,22.3,3.7,-22.6,22.7,3.8,-22.2,5.73,1.78,-11.6,28.1
2015-12-02 00:14:00,0.0,1.94923,0.00033,407.855,0.035,0.1256,0.0013,139.997,45.000,31708.25617,1.95166,408.473,35.004,45.070,45.001,0.00,0.09,-272.75,-272.81,-9,528,-942,22.3,3.7,-22.6,22.6,3.7,-22.2,5.73,1.92,-11.6,28.1
2015-12-02 00:15:00,0.0,1.94885,0.00054,407.838,0.039,0.1262,0.0018,140.002,45.000,31713.48540,1.95130,408.459,35.034,45.070,45.001,0.00,0.09,-272.74,-272.80,-10,528,-942,22.3,3.7,-22.6,22.7,3.7,-22.3,5.73,2.12,-11.6,28.1
2015-12-02 00:16:00,0.0,1.94912,0.00041,407.845,0.031,0.1266,0.0019,140.000,45.000,31714.19739,1.95154,408.468,35.063,45.070,45.000,0.00,0.09,-272.75,-272.81,-9,528,-942,22.3,3.7,-22.6,22.7,3.7,-22.2,5.73,1.80,-11.6,28.1
2015-12-02 00:17:00,0.0,1.94884,0.00061,407.836,0.032,0.1264,0.0018,139.999,45.000,31713.97140,1.95121,408.455,35.063,45.070,45.000,0.00,0.09,-272.76,-272.81,-9,528,-942,22.3,3.7,-22.6,22.6,3.7,-22.2,5.73,1.87,-11.6,28.1
2015-12-02 00:18:00,0.0,1.94862,0.00050,407.859,0.037,0.1282,0.0015,139.996,45.000,31713.22369,1.95113,408.490,35.068,45.069,45.000,0.00,0.09,-272.75,-272.80,-10,528,-942,22.3,3.7,-22.5,22.7,3.8,-22.1,5.73,2.13,-11.6,28.1
2015-12-02 00:19:00,0.0,1.94846,0.00052,407.849,0.026,0.1260,0.0022,139.999,45.000,31714.44342,1.95089,408.468,35.077,45.069,45.000,0.00,0.09,-272.74,-272.81,-10,528,-942,22.4,3.7,-22.6,22.7,3.8,-22.2,5.73,1.85,-11.6,28.1
2015-12-02 00:20:00,0.0,1.94873,0.00033,407.877,0.034,0.1250,0.0019,139.998,45.000,31713.87913,1.95114,408.492,35.115,45.069,45.000,0.00,0.09,-272.75,-272.82,-8,528,-942,22.4,3.7,-22.7,22.7,3.7,-22.3,5.73,1.83,-11.6,28.1
2015-12-02 00:21:00,0.0,1.94853,0.00055,407.844,0.038,0.1267,0.0024,140.000,45.000,31716.87669,1.95096,408.468,35.121,45.069,45.000,0.00,0.09,-272.75,-272.81,-9,528,-942,22.4,3.7,-22.6,22.7,3.7,-22.2,5.73,2.12,-11.6,28.2
2015-12-02 00:22:00,0.0,1.94884,0.00044,407.859,0.030,0.1243,0.0018,140.001,45.000,31715.00421,1.95123,408.470,35.116,45.069,45.000,0.00,0.09,-272.74,-272.81,-10,528,-942,22.4,3.7,-22.7,22.7,3.7,-22.3,5.73,1.92,-11.6,28.1
2015-12-02 00:23:00,0.0,1.94894,0.00047,407.877,0.031,0.1261,0.0019,139.998,45.000,31712.63589,1.95137,408.498,35.124,45.069,45.000,0.00,0.09,-272.75,-272.81,-10,528,-942,22.4,3.7,-22.6,22.7,3.7,-22.2,5.73,1.77,-11.6,28.1
2015-12-02 00:24:00,0.0,1.94884,0.00045,407.869,0.026,0.1265,0.0014,140.000,45.000,31714.91737,1.95127,408.490,35.125,45.069,45.000,0.00,0.09,-272.76,-272.81,-9,528,-942,22.4,3.7,-22.6,22.7,3.7,-22.2,5.73,2.08,-11.6,28.1
2015-12-02 00:25:00,0.0,1.94904,0.00047,407.849,0.034,0.1268,0.0017,140.000,45.000,31714.40244,1.95149,408.474,35.125,45.069,45.000,0.00,0.09,-272.75,-272.81,-9,528,-942,22.4,3.7,-22.5,22.7,3.8,-22.2,5.73,1.99,-11.6,28.1
2015-12-02 00:26:00,0.0,1.94870,0.00050,407.849,0.036,0.1274,0.0017,139.998,45.000,31714.69805,1.95113,408.476,35.125,45.069,45.000,0.00,0.09,-272.75,-272.81,-10,528,-942,22.4,3.7,-22.5,22.7,3.8,-22.1,5.73,1.75,-11.6,28.2
2015-12-02 00:27:00,0.0,1.94845,0.00053,407.828,0.028,0.1269,0.0016,140.001,45.000,31713.92425,1.95092,408.452,35.113,45.069,45.000,0.00,0.09,-272.76,-272.81,-10,528,-942,22.3,3.7,-22.6,22.7,3.8,-22.2,5.73,2.04,-11.6,28.1
2015-12-02 00:28:00,0.0,1.94816,0.00037,407.835,0.034,0.1246,0.0015,139.997,45.000,31712.91471,1.95055,408.448,35.091,45.069,45.000,0.00,0.09,-272.75,-272.81,-9,528,-942,22.3,3.7,-22.7,22.7,3.7,-22.3,5.73,2.05,-11.6,28.1
2015-12-02 00:29:00,0.0,1.94819,0.00034,407.850,0.042,0.1232,0.0020,139.998,45.000,31711.29159,1.95055,408.455,35.072,45.069,45.000,0.00,0.09,-272.74,-272.81,-9,528,-942,22.3,3.6,-22.9,22.6,3.7,-22.4,5.73,1.76,-11.6,28.1
2015-12-02 00:30:00,0.0,1.94828,0.00044,407.851,0.033,0.1251,0.0014,140.000,45.000,31710.61476,1.95069,408.466,35.091,45.069,45.000,0.00,0.09,-272.76,-272.81,-10,528,-942,22.3,3.6,-22.8,22.7,3.7,-22.4,5.73,1.96,-11.6,28.1
2015-12-02 00:31:00,0.0,1.94828,0.00038,407.866,0.022,0.1232,0.0016,139.998,45.000,31709.88901,1.95062,408.471,35.081,45.069,45.000,0.00,0.09,-272.75,-272.81,-10,528,-942,22.3,3.6,-22.9,22.7,3.7,-22.4,5.73,2.10,-11.6,28.1
2015-12-02 00:32:00,0.0,1.94814,0.00035,407.888,0.039,0.1243,0.0018,139.995,45.000,31709.45561,1.95056,408.499,35.072,45.069,45.000,0.00,0.09,-272.74,-272.81,-8,528,-942,22.3,3.6,-22.8,22.7,3.7,-22.4,5.73,1.78,-11.6,28.1
2015-12-02 00:33:00,0.0,1.94810,0.00034,407.885,0.030,0.1257,0.0020,140.001,45.000,31710.82205,1.95051,408.503,35.066,45.069,45.000,0.00,0.09,-272.76,-272.81,-9,528,-942,22.3,3.6,-22.8,22.7,3.7,-22.3,5.73,1.91,-11.6,28.1
2015-12-02 00:34:00,0.0,1.94796,0.00039,407.835,0.026,0.1249,0.0022,139.999,45.001,31712.16953,1.95039,408.451,35.105,45.069,45.000,0.00,0.09,-272.75,-272.82,-10,528,-942,22.3,3.6,-22.8,22.6,3.7,-22.3,5.73,2.11,-11.7,28.1
2015-12-02 00:35:00,0.0,1.94784,0.00031,407.828,0.031,0.1238,0.0015,139.998,45.000,31712.30154,1.95021,408.435,35.075,45.069,45.000,0.00,0.09,-272.74,-272.81,-9,528,-942,22.3,3.6,-22.8,22.6,3.7,-22.4,5.73,1.81,-11.7,28.1
2015-12-02 00:36:00,0.0,1.94772,0.00045,407.833,0.023,0.1252,0.0018,139.999,45.000,31712.30886,1.95014,408.447,35.062,45.069,45.000,0.00,0.09,-272.75,-272.81,-8,528,-942,22.2,3.7,-22.7,22.6,3.7,-22.3,5.73,1.86,-11.7,28.1
2015-12-02 00:37:00,0.0,1.94775,0.00045,407.854,0.032,0.1257,0.0015,139.998,45.000,31710.42935,1.95017,408.472,35.039,45.069,45.000,0.00,0.09,-272.76,-272.81,-9,528,-942,22.2,3.7,-22.7,22.6,3.8,-22.3,5.73,2.12,-11.7,28.0
2015-12-02 00:38:00,0.0,1.94802,0.00057,407.854,0.035,0.1256,0.0018,139.997,45.000,31707.85276,1.95046,408.473,35.008,45.069,45.000,0.00,0.09,-272.75,-272.81,-10,528,-942,22.2,3.7,-22.7,22.5,3.7,-22.3,5.73,1.90,-11.7,28.0
2015-12-02 00:39:00,0.0,1.94758,0.00041,407.848,0.032,0.1254,0.0025,139.999,44.999,31709.10360,1.94997,408.464,35.007,45.069,45.000,0.00,0.09,-272.75,-272.80,-9,528,-942,22.1,3.7,-22.7,22.5,3.7,-22.4,5.73,1.78,-11.7,28.0
2015-12-02 00:40:00,0.0,1.94779,0.00046,407.846,0.031,0.1254,0.0017,140.000,45.000,31706.53946,1.95021,408.463,35.001,45.069,45.000,0.00,0.09,-272.77,-272.81,-8,527,-942,22.1,3.7,-22.7,22.5,3.7,-22.4,5.73,2.10,-11.7,28.0
2015-12-02 00:41:00,0.0,1.94798,0.00049,407.857,0.042,0.1271,0.0018,139.997,45.000,31705.43488,1.95042,408.481,35.001,45.069,45.000,0.00,0.09,-272.75,-272.81,-9,527,-942,22.0,3.8,-22.6,22.5,3.8,-22.3,5.73,1.98,-11.7,28.0
2015-12-02 00:42:00,0.0,1.94835,0.00057,407.837,0.032,0.1278,0.0018,139.997,45.000,31703.83414,1.95077,408.466,34.999,45.069,45.000,0.00,0.09,-272.74,-272.80,-10,527,-942,22.0,3.8,-22.5,22.4,3.8,-22.2,5.73,1.76,-11.7,27.9
2015-12-02 00:43:00,0.0,1.94832,0.00039,407.871,0.026,0.1282,0.0019,139.998,45.000,31701.52338,1.95077,408.501,34.996,45.069,45.000,0.00,0.09,-272.76,-272.81,-9,527,-942,22.0,3.8,-22.5,22.4,3.8,-22.1,5.73,2.06,-11.7,27.9
2015-12-02 00:44:00,0.0,1.94808,0.00037,407.873,0.029,0.1285,0.0018,139.998,45.001,31703.22825,1.95054,408.504,35.038,45.070,45.001,0.00,0.09,-272.75,-272.81,-8,527,-942,21.9,3.8,-22.5,22.4,3.8,-22.1,5.73,2.01,-11.8,27.9
2015-12-02 00:45:00,0.0,1.94806,0.00039,407.875,0.034,0.1291,0.0014,140.001,45.001,31704.97439,1.95056,408.509,35.066,45.070,45.001,0.00,0.09,-272.74,-272.80,-9,527,-942,21.9,3.8,-22.4,22.4,3.9,-22.1,5.73,1.75,-11.8,27.9
2015-12-02 00:46:00,0.0,1.94776,0.00051,407.870,0.037,0.1285,0.0011,139.997,45.002,31704.79506,1.95024,408.501,35.124,45.070,45.001,0.00,0.09,-272.75,-272.80,-10,527,-942,21.9,3.8,-22.5,22.4,3.9,-22.1,5.73,2.09,-11.8,27.9
2015-12-02 00:47:00,0.0,1.94799,0.00038,407.877,0.038,0.1288,0.0016,139.999,45.002,31706.61830,1.95047,408.511,35.167,45.070,45.001,0.00,0.09,-272.76,-272.82,-8,527,-942,21.9,3.8,-22.5,22.3,3.9,-22.1,5.73,1.96,-11.8,28.0
2015-12-02 00:48:00,0.0,1.94808,0.00044,407.865,0.032,0.1291,0.0022,139.998,45.001,31706.05379,1.95054,408.500,35.206,45.070,45.001,0.00,0.09,-272.75,-272.81,-8,527,-942,21.8,3.8,-22.5,22.3,3.9,-22.1,5.73,1.78,-11.8,27.9
2015-12-02 00:49:00,0.0,1.94802,0.00036,407.891,0.029,0.1286,0.0016,139.999,45.001,31706.48454,1.95050,408.522,35.268,45.070,45.001,0.00,0.09,-272.75,-272.81,-10,527,-942,21.8,3.8,-22.5,22.3,3.9,-22.1,5.73,2.12,-11.8,28.0
2015-12-02 00:50:00,0.0,1.94808,0.00055,407.894,0.041,0.1285,0.0019,140.001,45.001,31708.30681,1.95054,408.524,35.324,45.070,45.001,0.00,0.09,-272.74,-272.82,-9,527,-943,21.8,3.8,-22.5,22.3,3.9,-22.1,5.73,1.89,-11.8,28.0
2015-12-02 00:51:00,0.0,1.94787,0.00043,407.914,0.032,0.1293,0.0017,140.000,45.001,31707.73001,1.95037,408.550,35.383,45.070,45.001,0.00,0.09,-272.75,-272.81,-8,527,-943,21.9,3.9,-22.5,22.3,3.9,-22.0,5.73,1.85,-11.8,28.1
2015-12-02 00:52:00,0.0,1.94759,0.00040,407.890,0.037,0.1278,0.0021,140.001,45.001,31711.57520,1.95003,408.521,35.449,45.070,45.001,0.00,0.09,-272.75,-272.80,-9,527,-943,21.9,3.8,-22.5,22.3,3.9,-22.1,5.73,2.13,-11.8,28.1
2015-12-02 00:53:00,0.0,1.94791,0.00040,407.865,0.031,0.1282,0.0014,140.000,45.001,31713.03659,1.95038,408.495,35.499,45.070,45.001,0.00,0.09,-272.75,-272.81,-9,527,-943,21.9,3.8,-22.5,22.3,3.9,-22.1,5.73,1.76,-11.8,28.1
2015-12-02 00:54:00,0.0,1.94752,0.00041,407.895,0.033,0.1294,0.0017,139.999,45.001,31714.13160,1.95003,408.532,35.519,45.070,45.001,0.00,0.09,-272.76,-272.81,-8,526,-943,21.9,3.8,-22.5,22.3,3.9,-22.1,5.73,2.03,-11.8,28.1
2015-12-02 00:55:00,0.0,1.94776,0.00044,407.907,0.034,0.1268,0.0019,139.999,45.001,31715.10084,1.95019,408.529,35.580,45.070,45.001,0.00,0.09,-272.75,-272.81,-9,526,-943,21.9,3.8,-22.6,22.3,3.8,-22.2,5.73,2.01,-11.9,28.1
2015-12-02 00:56:00,0.0,1.94752,0.00030,407.905,0.030,0.1271,0.0017,139.998,45.001,31717.18248,1.95000,408.530,35.628,45.070,45.001,0.00,0.09,-272.75,-272.80,-9,526,-943,21.9,3.8,-22.6,22.3,3.8,-22.2,5.73,1.77,-11.9,28.2
2015-12-02 00:57:00,0.0,1.94756,0.00045,407.913,0.036,0.1261,0.0011,139.998,45.001,31717.08218,1.95000,408.535,35.677,45.070,45.001,0.00,0.09,-272.76,-272.82,-8,526,-943,21.9,3.8,-22.6,22.3,3.8,-22.3,5.73,2.14,-11.9,28.1
2015-12-02 00:58:00,0.0,1.94775,0.00034,407.910,0.033,0.1266,0.0015,140.000,45.001,31721.73751,1.95015,408.532,35.699,45.070,45.001,0.00,0.09,-272.75,-272.81,-9,526,-943,22.0,3.8,-22.6,22.3,3.8,-22.3,5.73,1.81,-11.9,28.1
2015-12-02 00:59:00,0.0,1.94804,0.00056,407.896,0.036,0.1281,0.0016,139.997,45.001,31722.80509,1.95048,408.526,35.745,45.070,45.001,0.00,0.09,-272.75,-272.80,-9,527,-944,22.0,3.8,-22.5,22.3,3.8,-22.2,5.73,1.95,-11.9,28.2
2015-12-02 01:00:00,0.0,1.94828,0.00043,407.913,0.031,0.1271,0.0020,139.999,45.001,31722.33491,1.95068,408.537,35.791,45.070,45.001,0.00,0.09,-272.75,-272.81,-8,526,-944,22.0,3.8,-22.5,22.4,3.8,-22.2,5.73,2.07,-11.9,28.3
2015-12-02 01:01:00,0.0,1.94809,0.00048,407.918,0.033,0.1277,0.0022,139.999,45.001,31726.18584,1.95057,408.546,35.831,45.070,45.001,0.00,0.09,-272.75,-272.81,-9,526,-944,22.0,3.8,-22.5,22.4,3.9,-22.1,5.73,1.75,-11.9,28.3
2015-12-02 01:02:00,0.0,1.94820,0.00038,407.903,0.027,0.1272,0.0021,140.000,45.001,31730.15398,1.95064,408.528,35.874,45.070,45.001,0.00,0.09,-272.75,-272.80,-9,527,-944,22.0,3.8,-22.5,22.4,3.8,-22.1,5.73,2.13,-11.9,28.3
2015-12-02 01:03:00,0.0,1.94834,0.00043,407.907,0.051,0.1286,0.0020,139.999,45.001,31734.51751,1.95081,408.539,35.897,45.070,45.001,0.00,0.09,-272.75,-272.81,-8,527,-944,22.0,3.8,-22.5,22.4,3.9,-22.1,5.73,1.84,-11.9,28.4
2015-12-02 01:04:00,0.0,1.94797,0.00037,407.880,0.030,0.1292,0.0014,140.001,45.001,31739.41178,1.95047,408.515,35.939,45.070,45.001,0.00,0.09,-272.75,-272.81,-9,527,-944,22.0,3.8,-22.4,22.4,3.9,-22.1,5.73,1.93,-11.9,28.4
2015-12-02 01:05:00,0.0,1.94852,0.00042,407.908,0.032,0.1304,0.0021,139.996,45.001,31737.37453,1.95101,408.548,35.984,45.070,45.001,0.00,0.09,-272.75,-272.81,-9,527,-944,22.0,3.8,-22.3,22.4,3.9,-22.0,5.73,2.07,-11.9,28.4
2015-12-02 01:06:00,0.0,1.94808,0.00034,407.893,0.039,0.1298,0.0021,140.001,45.001,31740.76808,1.95057,408.532,36.002,45.070,45.001,0.00,0.09,-272.74,-272.81,-8,527,-944,22.1,3.9,-22.3,22.4,3.9,-22.0,5.73,1.75,-11.9,28.4
2015-12-02 01:07:00,0.0,1.94843,0.00054,407.904,0.028,0.1289,0.0015,139.996,45.001,31741.22345,1.95087,408.537,36.034,45.070,45.001,0.00,0.09,-272.76,-272.81,-9,527,-944,22.0,3.8,-22.4,22.4,3.9,-22.0,5.73,2.12,-11.9,28.5
2015-12-02 01:08:00,0.0,1.94844,0.00066,407.891,0.027,0.1304,0.0018,139.999,45.001,31745.87550,1.95093,408.532,36.062,45.070,45.001,0.00,0.09,-272.75,-272.81,-9,527,-944,22.1,3.8,-22.4,22.4,3.9,-22.0,5.73,1.84,-11.9,28.4
2015-12-02 01:09:00,0.0,1.94845,0.00054,407.892,0.037,0.1299,0.0017,140.001,45.001,31746.57673,1.95098,408.532,36.064,45.070,45.001,0.00,0.09,-272.75,-272.80,-8,527,-945,22.1,3.9,-22.3,22.4,3.9,-22.0,5.73,1.92,-11.9,28.5
2015-12-02 01:10:00,0.0,1.94839,0.00070,407.871,0.024,0.1313,0.0011,140.001,45.001,31750.45940,1.95096,408.516,36.097,45.070,45.001,0.00,0.09,-272.75,-272.81,-9,527,-945,22.1,3.9,-22.2,22.4,3.9,-21.9,5.73,2.07,-11.9,28.5
2015-12-02 01:11:00,0.0,1.94830,0.00052,407.884,0.042,0.1313,0.0021,139.999,45.001,31753.66556,1.95077,408.529,36.149,45.070,45.001,0.00,0.09,-272.75,-272.81,-9,527,-945,22.1,3.9,-22.3,22.4,3.9,-21.9,5.73,1.75,-11.9,28.6
2015-12-02 01:12:00,0.0,1.94870,0.00053,407.910,0.031,0.1296,0.0018,140.000,45.001,31754.18475,1.95118,408.548,36.198,45.070,45.001,0.00,0.09,-272.75,-272.80,-8,527,-945,22.2,3.8,-22.3,22.5,3.9,-21.9,5.73,2.13,-11.9,28.6
2015-12-02 01:13:00,0.0,1.94895,0.00030,407.881,0.029,0.1297,0.0018,139.998,45.001,31755.63117,1.95145,408.519,36.243,45.069,45.000,0.00,0.09,-272.74,-272.81,-10,527,-945,22.2,3.8,-22.3,22.5,3.9,-22.0,5.73,1.82,-11.9,28.6
2015-12-02 01:14:00,0.0,1.94857,0.00042,407.892,0.027,0.1298,0.0018,139.999,45.001,31758.74329,1.95106,408.530,36.254,45.069,45.000,0.00,0.09,-272.75,-272.81,-9,527,-945,22.2,3.8,-22.3,22.5,3.9,-21.9,5.73,1.95,-11.9,28.6
2015-12-02 01:15:00,0.0,1.94876,0.00040,407.873,0.028,0.1298,0.0017,140.003,45.001,31761.24853,1.95128,408.512,36.301,45.069,45.000,0.00,0.09,-272.75,-272.81,-8,527,-945,22.2,3.8,-22.4,22.5,3.9,-22.0,5.73,2.05,-11.9,28.7
2015-12-02 01:16:00,0.0,1.94821,0.00039,407.894,0.031,0.1315,0.0016,139.997,45.001,31759.84726,1.95074,408.539,36.350,45.069,45.000,0.00,0.09,-272.74,-272.80,-10,527,-945,22.2,3.8,-22.2,22.5,3.9,-21.9,5.73,1.76,-11.9,28.6
2015-12-02 01:17:00,0.0,1.94834,0.00057,407.922,0.030,0.1325,0.0020,140.000,45.001,31761.53064,1.95086,408.574,36.378,45.069,45.000,0.00,0.09,-272.75,-272.81,-8,527,-945,22.3,3.8,-22.2,22.5,3.9,-21.8,5.73,2.14,-11.9,28.7
2015-12-02 01:18:00,0.0,1.94841,0.00061,407.929,0.025,0.1326,0.0015,140.000,45.001,31762.15339,1.95097,408.581,36.433,45.069,45.000,0.00,0.09,-272.75,-272.81,-9,527,-945,22.3,3.9,-22.1,22.5,3.9,-21.8,5.73,1.78,-11.9,28.7
2015-12-02 01:19:00,0.0,1.94799,0.00033,407.921,0.024,0.1326,0.0020,139.999,45.001,31763.10713,1.95056,408.573,36.443,45.068,45.000,0.00,0.09,-272.75,-272.80,-10,527,-945,22.2,3.9,-22.1,22.5,3.9,-21.8,5.73,2.02,-11.9,28.8
2015-12-02 01:20:00,0.0,1.94752,0.00043,407.934,0.024,0.1321,0.0013,139.998,45.001,31765.85479,1.95007,408.584,36.469,45.069,45.000,0.00,0.09,-272.74,-272.81,-8,527,-945,22.2,3.8,-22.3,22.6,3.9,-21.7,5.73,1.97,-11.9,28.7
2015-12-02 01:21:00,0.0,1.94740,0.00045,407.921,0.027,0.1321,0.0016,140.001,45.001,31766.92815,1.94995,408.571,36.462,45.069,45.000,0.00,0.09,-272.76,-272.81,-9,527,-945,22.2,3.9,-22.1,22.6,3.9,-21.8,5.73,1.81,-11.9,28.8
2015-12-02 01:22:00,0.0,1.94742,0.00051,407.934,0.026,0.1333,0.0016,140.000,45.001,31768.62754,1.94996,408.588,36.469,45.069,45.000,0.00,0.09,-272.75,-272.80,-9,528,-945,22.3,3.9,-22.1,22.6,3.9,-21.8,5.73,2.13,-11.9,28.8
2015-12-02 01:23:00,0.0,1.94714,0.00044,407.921,0.033,0.1336,0.0015,140.001,45.001,31770.73897,1.94975,408.579,36.497,45.069,45.000,0.00,0.09,-272.75,-272.80,-8,527,-945,22.3,3.9,-22.0,22.6,3.9,-21.7,5.73,1.74,-11.9,28.8
2015-12-02 01:24:00,0.0,1.94669,0.00036,407.908,0.034,0.1338,0.0017,139.999,45.000,31773.89845,1.94924,408.568,36.506,45.069,45.001,0.00,0.09,-272.76,-272.81,-9,527,-946,22.3,3.9,-22.1,22.6,3.9,-21.7,5.73,2.10,-10.9,28.8
2015-12-02 01:25:00,0.0,1.94700,0.00052,407.929,0.036,0.1347,0.0020,140.000,45.000,31775.28401,1.94961,408.590,36.544,45.069,45.001,0.00,0.09,-272.74,-272.81,-9,528,-946,22.3,3.9,-21.9,22.6,3.9,-21.7,5.73,1.87,-11.0,28.8
2015-12-02 01:26:00,0.0,1.94689,0.00042,407.937,0.035,0.1367,0.0018,139.999,45.001,31774.78326,1.94952,408.607,36.558,45.069,45.000,0.00,0.09,-272.75,-272.80,-8,528,-946,22.3,3.9,-21.9,22.6,4.0,-21.5,5.73,1.90,-11.1,28.8
2015-12-02 01:27:00,0.0,1.94689,0.00052,407.928,0.028,0.1370,0.0021,140.000,45.000,31777.45607,1.94950,408.603,36.565,45.069,45.000,0.00,0.09,-272.75,-272.81,-10,527,-946,22.3,4.0,-21.9,22.6,4.0,-21.5,5.73,2.08,-11.2,28.9
2015-12-02 01:28:00,0.0,1.94620,0.00056,407.943,0.030,0.1372,0.0016,139.997,45.000,31777.95897,1.94888,408.617,36.570,45.069,45.000,0.00,0.09,-272.75,-272.81,-9,528,-946,22.3,4.0,-21.8,22.6,4.0,-21.4,5.73,1.75,-11.3,28.9
2015-12-02 01:29:00,0.0,1.94613,0.00037,407.925,0.028,0.1375,0.0023,139.998,45.000,31780.90922,1.94874,408.603,36.591,45.069,45.000,0.00,0.09,-272.74,-272.81,-8,528,-946,22.3,4.0,-21.8,22.6,4.0,-21.5,5.73,2.13,-11.3,28.9
2015-12-02 01:30:00,0.0,1.94622,0.00054,407.919,0.033,0.1381,0.0016,140.001,45.000,31781.92753,1.94888,408.597,36.615,45.069,45.000,0.00,0.09,-272.74,-272.81,-10,528,-946,22.4,4.0,-21.8,22.7,4.0,-21.4,5.73,1.79,-11.4,28.9
2015-12-02 01:31:00,0.0,1.94646,0.00044,407.929,0.038,0.1360,0.0016,139.997,45.000,31780.62575,1.94906,408.598,36.623,45.069,45.000,0.00,0.09,-272.76,-272.81,-8,528,-946,22.4,4.0,-21.7,22.6,4.0,-21.5,5.73,1.99,-11.4,29.0
2015-12-02 01:32:00,0.0,1.94660,0.00041,407.951,0.033,0.1371,0.0015,140.003,45.000,31783.32224,1.94925,408.626,36.625,45.069,45.000,0.00,0.09,-272.74,-272.81,-8,528,-946,22.4,3.9,-21.8,22.6,4.0,-21.5,5.73,1.99,-11.4,29.0
2015-12-02 01:33:00,0.0,1.94641,0.00057,407.922,0.028,0.1360,0.0019,139.998,45.000,31784.57198,1.94899,408.591,36.625,45.069,45.000,0.00,0.09,-272.75,-272.80,-10,528,-946,22.4,3.9,-21.8,22.7,4.0,-21.5,5.73,1.80,-11.5,29.0
2015-12-02 01:34:00,0.0,1.94665,0.00045,407.932,0.036,0.1369,0.0011,139.999,45.000,31782.58794,1.94931,408.605,36.634,45.069,45.000,0.00,0.09,-272.76,-272.81,-8,528,-946,22.4,3.9,-21.8,22.7,4.0,-21.5,5.73,2.13,-11.5,29.0
2015-12-02 01:35:00,0.0,1.94653,0.00041,407.946,0.030,0.1365,0.0015,140.000,45.000,31782.62260,1.94917,408.618,36.662,45.069,45.000,0.00,0.09,-272.75,-272.81,-9,528,-946,22.4,3.9,-21.8,22.7,4.0,-21.5,5.73,1.74,-11.5,28.9
2015-12-02 01:36:00,0.0,1.94637,0.00049,407.941,0.048,0.1340,0.0025,140.001,45.000,31784.40732,1.94894,408.601,36.647,45.068,45.000,0.00,0.09,-272.75,-272.80,-10,528,-946,22.5,3.9,-22.0,22.7,4.0,-21.5,5.73,2.07,-11.6,28.9
2015-12-02 01:37:00,0.0,1.94590,0.00024,407.934,0.039,0.1324,0.0014,140.000,45.000,31785.40969,1.94845,408.584,36.628,45.068,44.999,0.00,0.09,-272.74,-272.81,-8,528,-946,22.5,3.8,-22.2,22.7,3.9,-21.7,5.73,1.93,-11.6,28.9
2015-12-02 01:38:00,0.0,1.94652,0.00026,407.959,0.031,0.1336,0.0015,139.998,44.999,31782.00516,1.94907,408.615,36.583,45.068,44.999,0.00,0.09,-272.75,-272.81,-9,528,-946,22.4,3.8,-22.1,22.7,3.9,-21.8,5.73,1.81,-11.6,28.9
2015-12-02 01:39:00,0.0,1.94665,0.00042,407.962,0.034,0.1327,0.0020,139.999,44.999,31780.43150,1.94919,408.616,36.547,45.068,44.999,0.00,0.09,-272.75,-272.80,-10,528,-945,22.5,3.9,-22.0,22.7,3.9,-21.7,5.73,2.12,-11.6,28.9
2015-12-02 01:40:00,0.0,1.94697,0.00064,407.963,0.028,0.1328,0.0019,139.996,44.999,31779.45648,1.94951,408.615,36.505,45.068,44.999,0.00,0.09,-272.74,-272.81,-8,528,-945,22.4,3.8,-22.2,22.8,3.9,-21.6,5.73,1.77,-11.6,28.9
2015-12-02 01:41:00,0.0,1.94637,0.00036,407.936,0.026,0.1336,0.0018,139.995,44.999,31778.60930,1.94895,408.593,36.497,45.068,44.999,0.00,0.09,-272.75,-272.81,-9,528,-945,22.5,3.8,-22.2,22.8,3.9,-21.6,5.73,1.98,-11.6,28.8
2015-12-02 01:42:00,0.0,1.94634,0.00039,407.949,0.038,0.1328,0.0011,140.000,44.999,31779.12782,1.94892,408.603,36.454,45.068,44.999,0.00,0.09,-272.75,-272.81,-10,528,-945,22.5,3.8,-22.1,22.8,3.9,-21.7,5.73,2.04,-11.7,28.8
2015-12-02 01:43:00,0.0,1.94674,0.00067,407.968,0.027,0.1330,0.0014,139.998,44.999,31776.30515,1.94926,408.621,36.424,45.068,44.999,0.00,0.09,-272.74,-272.81,-8,528,-945,22.5,3.8,-22.1,22.8,3.9,-21.8,5.73,1.75,-11.7,28.8
2015-12-02 01:44:00,0.0,1.94659,0.00039,407.975,0.034,0.1325,0.0021,140.000,44.999,31775.32179,1.94912,408.626,36.381,45.068,44.999,0.00,0.09,-272.75,-272.81,-9,528,-945,22.5,3.8,-22.1,22.8,3.9,-21.8,5.73,2.10,-11.7,28.8
2015-12-02 01:45:00,0.0,1.94641,0.00053,407.937,0.035,0.1312,0.0020,139.998,44.999,31772.82666,1.94894,408.583,36.376,45.068,44.999,0.00,0.09,-272.75,-272.82,-10,528,-945,22.5,3.8,-22.3,22.8,3.8,-21.8,5.73,1.91,-11.7,28.8